Location: ??????
(38.0677°N, 22.9870°E)
Time: 08:15:09
(UTC+00:00)

CZ-2C R/B - Pass Details

Date: 13 August 2024
Orbit: 666 x 777 km, 98.4° (Epoch: 08 September)

Event Time Altitude Azimuth Distance (km) Brightness Sun altitude
Rises 02:55:18 0° 1° (N) 3,267 6.2 -9.2°
Reaches altitude 10° 02:57:51 10° 351° (N) 2,336 5.2 -8.8°
Maximum altitude 03:02:18 30° 292° (WNW) 1,359 3.5 -8.0°
Drops below altitude 10° 03:06:42 10° 232° (SW) 2,303 4.3 -7.2°
Enters shadow 03:07:22 - 228° (SW) 2,533 4.6 -7.1°
